This demonstration page uses our WeatherBlox Daily Observations layout. Learn more.

Left ArrowRight Arrow

Hourly Observations for September 8, 2019

Temp ( °F °C ) Dew Point ( °F °C ) Humidity (%) Winds ( mph kmh ) Pressure ( in mb ) Visibility ( mi km ) Precip ( " mm )
12:51 am 00:51 Clear 71 21.7 66 18.9 84 84 NNW 5 7 29.83 1010 10 16 0.00 0.00
1:51 am 01:51 Clear 71 21.7 67 19.4 87 87 E 5 7 29.80 1009 10 16 0.00 0.00
2:51 am 02:51 Clear 71 21.7 67 19.4 87 87 ESE 6 9 29.80 1009 10 16 0.00 0.00
3:51 am 03:51 Clear 70 21.1 67 19.4 90 90 ESE 5 7 29.79 1009 10 16 0.00 0.00
4:51 am 04:51 Clear 69 20.6 67 19.4 93 93 WNW 5 7 29.81 1009 10 16 0.00 0.00
5:51 am 05:51 Clear 68 20 67 19.4 96 96 Calm 29.85 1011 10 16 0.00 0.00
6:51 am 06:51 Sunny 70 21.1 67 19.4 90 90 W 5 7 29.86 1011 10 16 0.00 0.00
8:51 am 08:51 Mostly Sunny 77 25 66 18.9 69 69 VRB 3 6 29.86 1011 10 16 0.00 0.00
9:51 am 09:51 Sunny 81 27.2 63 17.2 54 54 Calm 29.85 1011 10 16 0.00 0.00
10:51 am 10:51 Partly Cloudy 85 29.4 62 16.7 46 46 VRB 6 9 29.82 1010 10 16 0.00 0.00
11:51 am 11:51 Sunny 86 30 63 17.2 46 46 N 6 9 29.80 1009 10 16 0.00 0.00
12:51 pm 12:51 undefined 88 31.1 60 15.6 39 39 VRB 6 9 29.77 1008 10 16 0.00 0.00
1:51 pm 13:51 Sunny 89 31.7 60 15.6 38 38 Calm 29.73 1007 10 16 0.00 0.00
2:51 pm 14:51 Sunny 93 33.9 60 15.6 33 33 WNW 8 13 29.70 1006 10 16 0.00 0.00
3:51 pm 15:51 Sunny 94 34.4 57 13.9 29 29 WNW 12 19 29.67 1005 10 16 0.00 0.00
4:51 pm 16:51 Sunny 93 33.9 57 13.9 30 30 WNW 8 13 29.65 1004 10 16 0.00 0.00
5:51 pm 17:51 Sunny 92 33.3 57 13.9 31 31 WNW 8 13 29.65 1004 10 16 0.00 0.00
6:51 pm 18:51 Clear 87 30.6 60 15.6 40 40 W 6 9 29.66 1004 10 16 0.00 0.00
7:51 pm 19:51 Mostly Clear 86 30 61 16.1 43 43 WNW 7 11 29.68 1005 10 16 0.00 0.00
8:51 pm 20:51 Clear 84 28.9 59 15 43 43 WNW 10 17 29.71 1006 10 16 0.00 0.00
9:51 pm 21:51 Clear 83 28.3 55 12.8 38 38 NW 10 17 29.71 1006 10 16 0.00 0.00
10:51 pm 22:51 Mostly Clear 82 27.8 55 12.8 40 40 NW 10 17 29.71 1006 10 16 0.00 0.00
11:51 pm 23:51 Mostly Cloudy 79 26.1 56 13.3 45 45 NW 10 17 29.72 1006 10 16 0.00 0.00

Powered by AerisWeather